Vertical_Velocity
-7 9 -4 -5 -3 -3 2 4 0 -6 -9 18 -3 -1 -5 -7 6 3 6 1 -0 -3 7 -15 21 21 -0 9 4 0 -10 1 -3 2 -3 -1 -5 -3 1 -2 0 -2 1 -0
14 -3 -9 1 3 5 4 2 -9 -8 -3 17 -1 -7 -4 -0 -8 -4 0 3 -4 -1 14 -22 22 6 11 2 -2 4 -3 -1 -1 -5 -2 -1 -1 0 0 -0 -2 0 -0 1
2 -26 3 9 1 10 -3 1 -2 -2 -5 -3 5 -4 2 -6 4 4 8 -2 1 -13 -7 -1 -0 4 8 -8 -3 -2 -4 -3 1 -5 4 5 4 3 2 0 -2 -1 -1 4
-2 -11 4 4 0 8 7 -3 2 2 9 -3 0 -13 -3 -2 -2 3 0 5 1 3 15 -13 21 8 -8 -3 16 8 -9 -5 -2 2 -2 -6 -7 -6 -5 1 -2 1 -1 5
-45 -2 0 7 -8 7 -30 3 -1 1 2 9 -11 7 -23 4 5 -2 -2 -0 1 -1 -6 -5 -0 10 -1 8 -7 7 2 -2 -3 -1 -5 -5 -4 2 3 -0 -3 0 -2 -1
-5 -5 6 -4 -5 5 -3 4 7 3 2 5 -13 4 -17 -2 -19 0 0 3 -5 9 6 5 -27 58 14 0 5 -4 2 0 -0 1 1 -3 -2 -1 -5 -2 1 -3 -1 -2
-2 -4 -3 10 13 -4 3 7 3 4 2 -10 -3 9 -18 -6 -4 -9 -5 0 -2 2 3 -4 -6 -2 20 1 -7 1 8 0 1 0 6 -2 -3 -2 2 -2 -3 -5 -5 -4
4 2 3 -3 -2 -10 -0 7 -3 -5 -2 -11 -1 -2 -35 -5 -1 -0 -2 -11 7 3 1 -4 -7 -24 5 2 -7 -1 1 1 3 -1 2 4 -2 -4 2 5 -6 -3 1 -2
3 -6 -11 3 0 -8 -7 3 -15 1 -1 0 -3 -1 -3 -1 1 1 -0 7 6 0 -0 -2 -5 7 39 13 0 -12 1 5 4 -3 4 2 -3 -3 -4 2 -1 -1 2 1
-5 -0 -1 -2 -4 -1 -10 -4 3 1 0 1 -4 -2 -7 -1 -1 -1 -0 -1 7 4 6 2 5 -6 -1 -20 25 8 0 -5 -2 3 -1 -1 -6 2 -2 3 -3 -1 -0 2
1 5 -16 -1 -1 -1 9 4 3 -5 0 -1 -1 -5 8 6 5 -2 -3 -2 4 -0 -2 -2 3 9 -21 -6 -1 8 4 -1 1 4 -7 -1 -4 -2 2 -0 -2 -1 2 1
2 3 0 -7 -9 3 3 0 -3 -5 1 -2 2 -6 3 5 4 3 -1 -1 5 -4 -1 1 -2 -22 -19 2 -7 -2 4 -5 1 7 4 -4 -0 2 -1 1 -2 -1 3 -0
-2 -3 -2 -7 1 -5 1 -2 -1 -0 0 -3 5 -7 -0 -4 -6 -1 3 8 2 -2 1 2 5 10 2 4 -0 3 -5 -6 0 1 -7 4 -1 1 -2 0 -2 1 2 -3
0 0 2 2 -0 3 1 -2 0 -3 -1 -3 4 1 -5 -1 -0 -5 -5 1 6 -2 -5 -1 -6 -4 5 -6 -3 -2 5 -3 -5 -1 -2 -1 -3 -1 0 -1 1 -1 -2 -0
-2 1 2 -2 0 -5 4 2 2 -5 6 -2 4 0 8 6 5 8 12 4 14 24 17 1 -8 -16 -40 1 7 14 13 2 -6 -0 -2 -1 -3 2 2 1 1 -0 -0 -1
-2 -2 0 6 2 -4 -3 -0 -1 -0 -1 -3 -1 1 6 5 2 -10 3 0 0 0 3 2 19 17 0 -2 -5 2 6 1 6 -9 -7 -0 -1 3 2 2 1 -1 0 0
2 1 -0 1 -0 -2 -19 13 2 1 -0 7 -0 2 1 -1 -0 4 1 4 6 4 4 2 17 20 -0 4 -3 -7 -6 -0 -1 3 1 2 6 2 -1 0 -0 -3 -3 0
0 1 0 0 -4 -12 2 1 7 4 4 -1 -2 0 6 9 11 -0 5 4 2 3 7 2 3 -1 28 7 6 9 2 -2 8 5 -5 -0 -1 3 1 -1 0 0 -1 -1
1 1 -1 -3 -0 1 -13 -10 2 6 5 6 6 -1 2 -1 -8 -12 -5 11 11 6 5 12 -5 2 -3 9 8 8 9 5 4 -3 -7 2 3 -1 -1 -2 -1 2 2 -1
-5 -2 -6 -3 -5 3 5 -4 3 2 -1 4 5 3 3 -7 -10 1 0 -5 -2 1 18 -11 12 -7 -1 10 7 -3 6 5 0 1 2 6 2 -1 -1 1 -3 2 3 4
-3 -3 -0 0 0 3 4 3 2 -22 2 2 5 5 1 1 19 9 -2 -3 5 5 5 9 0 -0 -3 2 5 6 7 9 6 9 12 3 3 3 2 -3 0 1 2 2
5 -1 1 -4 -4 -3 -0 -14 -15 6 2 3 2 3 2 6 2 1 2 -1 -2 -5 0 -8 2 10 6 25 0 15 5 3 3 0 3 1 2 -1 -3 4 1 2 4 2
-5 4 2 1 6 1 4 8 3 4 9 2 2 3 3 1 -0 6 1 4 2 4 2 2 -1 10 6 3 6 -3 2 13 -2 2 4 4 1 -1 0 0 2 3 1 2
-3 0 -2 -3 8 3 0 3 -1 5 -2 4 7 7 5 7 -0 -0 -0 -2 3 2 -6 1 4 -2 -1 2 8 13 2 -1 17 -0 -3 -1 0 -1 -1 2 4 4 -1 2
12 -6 1 5 -3 3 -4 -1 2 -1 -5 -4 3 4 5 2 5 -0 0 -1 2 5 -4 -0 -2 -0 1 3 13 1 -0 -3 21 14 10 9 4 -1 0 4 -3 -3 -1 -1
1 5 -1 4 5 0 3 3 5 -3 4 5 -0 -0 1 -3 4 3 -1 2 -4 -1 1 -1 2 -4 -5 -2 1 3 4 -1 9 8 3 6 5 11 4 -1 -2 -1 -1 1
Height
1469 1471 1463 1469 1470 1466 1465 1463 1460 1454 1450 1451 1447 1444 1443 1438 1439 1441 1448 1451 1453 1456 1464 1475 1480 1489 1495 1498 1504 1510 1515 1524 1529 1535 1540 1547 1550 1555 1557 1561 1564 1569 1573 1575
1462 1451 1455 1460 1460 1458 1458 1459 1454 1448 1444 1444 1442 1441 1436 1430 1427 1434 1441 1445 1448 1451 1453 1467 1474 1482 1485 1491 1498 1505 1512 1519 1525 1532 1537 1544 1549 1552 1556 1558 1561 1566 1571 1573
1450 1440 1451 1451 1450 1451 1446 1448 1448 1449 1442 1435 1442 1439 1432 1424 1424 1426 1430 1433 1439 1443 1451 1464 1469 1477 1472 1490 1494 1500 1506 1515 1522 1529 1535 1542 1547 1550 1553 1555 1558 1563 1568 1572
1435 1436 1438 1439 1438 1439 1441 1436 1436 1438 1442 1445 1435 1447 1425 1416 1416 1419 1420 1425 1432 1436 1441 1454 1462 1471 1479 1483 1491 1497 1503 1512 1520 1525 1530 1535 1539 1542 1549 1552 1555 1560 1565 1570
1434 1441 1436 1427 1429 1430 1430 1429 1430 1432 1437 1439 1430 1445 1420 1408 1411 1411 1411 1414 1423 1429 1437 1446 1461 1470 1473 1479 1488 1492 1500 1508 1517 1522 1527 1531 1537 1541 1546 1549 1553 1557 1563 1567
1427 1428 1437 1429 1433 1435 1436 1433 1421 1425 1434 1446 1424 1436 1423 1414 1398 1402 1406 1408 1416 1425 1434 1445 1455 1461 1469 1475 1483 1490 1497 1504 1512 1518 1523 1528 1533 1538 1542 1545 1550 1554 1560 1565
1423 1421 1421 1429 1430 1428 1435 1434 1431 1438 1447 1440 1417 1426 1417 1396 1388 1390 1399 1405 1412 1421 1429 1437 1448 1458 1460 1471 1478 1486 1491 1499 1507 1514 1520 1526 1531 1535 1538 1541 1546 1551 1557 1562
1438 1423 1413 1414 1419 1430 1428 1427 1429 1442 1439 1430 1413 1420 1406 1390 1381 1384 1390 1397 1406 1416 1425 1434 1440 1449 1454 1461 1471 1480 1488 1496 1504 1511 1517 1523 1528 1532 1536 1540 1544 1550 1555 1559
1449 1425 1415 1415 1417 1422 1429 1430 1416 1423 1421 1428 1415 1404 1396 1389 1379 1382 1386 1391 1399 1408 1420 1428 1436 1443 1443 1457 1464 1474 1481 1492 1500 1507 1514 1518 1523 1529 1533 1538 1543 1548 1553 1557
1454 1443 1419 1413 1413 1415 1425 1412 1419 1416 1433 1432 1415 1408 1407 1386 1383 1380 1379 1383 1391 1402 1415 1423 1429 1439 1448 1454 1461 1465 1476 1485 1495 1501 1509 1514 1521 1526 1532 1536 1540 1545 1550 1554
1458 1450 1428 1419 1411 1415 1413 1415 1412 1411 1414 1427 1424 1413 1402 1404 1393 1377 1373 1375 1385 1394 1405 1414 1423 1431 1443 1450 1456 1460 1471 1482 1492 1498 1504 1511 1517 1524 1529 1532 1537 1542 1546 1550
1455 1452 1445 1425 1410 1412 1407 1405 1406 1426 1422 1419 1426 1420 1407 1403 1399 1386 1371 1366 1379 1389 1397 1406 1416 1429 1440 1442 1452 1462 1467 1476 1485 1493 1500 1507 1514 1520 1524 1528 1533 1537 1542 1546
1460 1454 1445 1409 1412 1416 1409 1406 1399 1402 1417 1428 1437 1423 1408 1401 1408 1398 1383 1375 1376 1387 1396 1406 1417 1427 1435 1447 1452 1454 1462 1472 1481 1489 1497 1504 1510 1515 1519 1524 1529 1534 1539 1543
1460 1457 1457 1451 1441 1434 1419 1413 1409 1405 1423 1424 1429 1424 1422 1419 1418 1405 1391 1381 1379 1384 1392 1402 1413 1420 1432 1436 1447 1450 1458 1467 1477 1485 1492 1500 1506 1511 1516 1521 1526 1530 1535 1539
1460 1459 1452 1446 1442 1432 1433 1435 1430 1437 1440 1435 1442 1439 1433 1434 1432 1420 1410 1398 1399 1403 1401 1401 1407 1411 1430 1440 1447 1449 1457 1464 1471 1479 1487 1493 1501 1508 1512 1517 1522 1527 1532 1536
1458 1456 1451 1437 1438 1432 1449 1454 1455 1452 1454 1449 1451 1448 1444 1439 1432 1424 1424 1419 1418 1417 1411 1415 1417 1409 1416 1429 1439 1448 1454 1462 1467 1475 1483 1489 1497 1503 1507 1512 1517 1523 1529 1533
1462 1457 1450 1436 1434 1422 1446 1478 1475 1476 1474 1467 1459 1460 1450 1439 1436 1436 1433 1429 1427 1423 1420 1419 1422 1425 1423 1426 1432 1441 1448 1457 1464 1470 1479 1484 1492 1496 1501 1508 1514 1519 1523 1529
1460 1457 1455 1445 1445 1477 1493 1485 1483 1479 1480 1475 1471 1457 1447 1443 1442 1440 1441 1436 1433 1428 1427 1424 1426 1425 1429 1430 1436 1441 1446 1453 1461 1465 1474 1480 1487 1491 1496 1502 1508 1513 1519 1523
1462 1462 1458 1461 1466 1483 1485 1490 1486 1480 1476 1476 1465 1458 1454 1449 1443 1440 1443 1438 1439 1434 1428 1425 1426 1427 1426 1429 1433 1438 1442 1450 1457 1462 1469 1473 1481 1486 1491 1497 1502 1508 1513 1518
1464 1456 1456 1467 1490 1511 1512 1492 1479 1476 1473 1484 1478 1469 1464 1460 1455 1458 1454 1450 1441 1438 1427 1425 1420 1423 1428 1430 1434 1440 1445 1448 1453 1459 1464 1469 1477 1482 1487 1491 1497 1505 1510 1514
1483 1483 1489 1488 1495 1514 1510 1495 1482 1490 1513 1502 1492 1484 1477 1472 1475 1470 1460 1449 1446 1441 1434 1429 1429 1429 1432 1433 1436 1440 1444 1447 1454 1459 1466 1467 1474 1479 1482 1490 1496 1501 1506 1511
1503 1502 1504 1502 1511 1525 1521 1507 1505 1522 1517 1508 1500 1494 1488 1483 1479 1472 1467 1460 1452 1445 1438 1434 1430 1431 1429 1430 1434 1435 1446 1450 1453 1456 1463 1466 1471 1475 1482 1488 1493 1498 1503 1506
1512 1521 1522 1523 1535 1536 1531 1526 1523 1519 1515 1510 1506 1500 1495 1489 1482 1477 1468 1462 1457 1452 1447 1445 1440 1437 1433 1436 1438 1440 1444 1448 1451 1454 1459 1464 1469 1474 1478 1484 1489 1492 1496 1500
1525 1526 1529 1530 1541 1537 1533 1530 1527 1523 1519 1515 1510 1506 1501 1496 1491 1483 1477 1469 1463 1457 1452 1449 1444 1440 1441 1443 1443 1442 1443 1445 1442 1452 1457 1461 1465 1469 1475 1480 1485 1487 1492 1495
1537 1532 1535 1539 1540 1539 1537 1534 1531 1529 1526 1520 1516 1511 1506 1501 1497 1492 1483 1478 1475 1470 1463 1457 1453 1451 1448 1447 1444 1444 1445 1448 1450 1450 1453 1458 1462 1465 1471 1476 1480 1483 1487 1491
1544 1543 1544 1547 1546 1543 1541 1537 1534 1529 1525 1522 1517 1513 1510 1507 1503 1500 1495 1491 1482 1478 1475 1469 1466 1463 1460 1458 1454 1451 1452 1454 1451 1452 1456 1459 1460 1463 1464 1471 1476 1480 1484 1489